SCP
0 0 0 0 0 0 0 0 0 -0 0 0 0 0 0 0 0 0 0 0 0 0 0 0 0 0 0 0 0 0 0 0 0 0 0 0 0 0 0 0 0 0 0
0 0 0 0 0 -0 -0 -0 -0 -0 0 -0 0 0 0 0 0 0 0 0 0 0 0 0 0 0 0 0 0 0 0 0 0 0 0 0 0 0 0 0 0 0 0
-0 -0 0 0 0 0 -0 -0 -0 -0 -0 -0 -0 -0 -0 0 0 0 0 0 0 0 0 0 0 0 0 0 0 0 0 0 -0 0 0 0 0 0 0 0 0 0 0
-0 -0 -0 -0 0 0 -0 0 0 0 0 0 0 0 0 0 0 0 0 0 0 0 0 0 0 -0 0 0 -0 -0 -0 0 0 0 0 0 0 0 0 0 0 0 0
-0 -0 -0 -0 -0 -0 0 0 0 0 0 0 0 0 0 0 0 0 0 0 0 -0 -0 -0 0 0 0 0 0 0 0 0 0 0 0 0 0 0 0 0 0 0 0
-0 -0 -0 -0 -0 -0 -0 0 0 0 0 0 0 0 0 0 0 0 0 0 0 0 0 0 0 0 0 0 0 0 0 0 0 0 0 0 0 0 0 0 0 0 0
-0 -0 -0 -0 -0 -0 -0 0 0 0 0 0 0 0 0 0 0 0 0 0 0 0 0 0 0 0 0 0 0 0 0 0 0 0 0 0 0 0 0 0 0 0 0
-0 -0 -0 -0 -0 -0 -0 -0 0 0 0 0 0 0 0 0 0 0 0 0 0 0 0 0 0 0 0 0 0 0 0 0 0 0 0 0 0 0 0 0 0 0 0
-0 -0 -0 -0 -0 -0 -0 -0 -0 -0 0 0 0 0 0 0 0 0 0 0 0 0 0 0 0 0 0 0 0 0 0 0 0 0 0 0 0 0 0 0 0 0 0
0 0 0 0 -0 -0 -0 -0 0 0 0 0 0 0 0 0 0 0 0 0 0 -0 0 0 0 0 0 0 0 0 0 0 0 0 0 0 0 0 0 0 0 0 0
0 0 0 0 0 0 0 0 0 0 0 0 0 0 0 0 0 0 0 0 0 0 0 0 0 0 0 0 0 0 0 0 0 0 0 0 0 0 0 0 0 0 0
-0 0 0 0 0 0 0 0 0 0 0 0 0 0 0 0 0 0 0 0 0 0 0 0 0 0 0 0 0 0 0 0 0 0 0 0 0 0 0 0 0 0 0
0 0 0 0 0 0 0 0 0 0 0 0 0 0 0 0 0 0 0 0 0 0 0 0 0 0 0 0 0 0 0 0 0 0 0 0 0 0 0 0 0 0 0
0 0 0 0 0 0 0 0 0 0 0 0 0 0 0 0 0 0 0 0 0 0 0 0 0 0 0 0 0 0 0 0 0 0 0 0 0 0 0 0 0 0 0
0 0 0 0 0 0 0 0 0 0 0 0 0 0 0 0 0 0 0 0 0 0 0 0 0 0 0 0 0 0 0 0 0 0 0 0 0 0 0 0 0 0 0
0 0 0 0 0 0 0 0 0 0 0 0 0 0 0 0 0 0 0 0 0 0 0 0 0 0 0 0 0 0 0 0 0 0 0 0 0 0 0 0 0 0 0
0 0 0 0 0 0 0 0 0 0 0 0 0 0 0 0 0 0 0 0 0 0 0 0 -0 0 0 0 0 0 0 0 0 0 0 0 0 0 0 0 0 0 0
0 0 0 0 0 0 0 0 0 0 0 0 0 0 0 0 0 0 0 0 0 0 0 0 0 0 0 0 0 0 0 0 0 0 0 0 0 0 0 0 0 0 0
0 0 0 0 0 0 0 0 0 0 0 0 0 0 0 0 0 0 0 0 0 0 0 0 0 0 0 0 0 0 0 0 0 0 0 0 0 0 0 0 0 0 0
0 0 0 0 0 0 0 0 0 0 0 0 0 0 0 0 0 0 0 0 0 0 0 0 0 0 0 0 0 0 0 0 0 0 0 0 0 0 0 0 0 0 0
0 0 0 0 0 0 0 0 0 0 0 0 0 0 0 0 0 0 0 0 0 0 0 0 0 0 0 0 0 0 0 0 0 0 0 0 0 0 0 0 0 0 0
0 0 0 0 0 0 0 0 0 0 0 0 0 0 0 0 0 0 0 0 0 0 0 0 0 0 0 0 0 0 0 0 0 0 0 0 0 0 0 0 0 0 0
0 0 0 0 0 0 0 0 0 0 0 0 0 0 0 0 0 0 0 0 0 0 0 0 0 0 0 0 0 0 0 0 0 0 0 0 0 0 0 0 0 0 0
0 0 0 0 0 0 0 0 0 0 0 0 0 0 0 0 0 0 0 0 0 0 0 0 0 0 0 0 0 0 0 0 0 0 0 0 0 0 0 0 0 0 0
0 0 0 0 0 0 0 0 0 0 0 0 0 0 0 0 0 0 0 0 0 0 0 0 0 0 0 0 0 -0 -0 -0 -0 -0 0 0 0 0 0 0 0 0 0
0 0 0 0 0 0 0 0 0 0 0 0 0 0 0 0 0 0 0 0 0 0 0 0 0 0 0 0 -0 -0 -0 -0 -0 -0 0 0 0 0 0 0 0 0 0
Wind_Speed_500mb
91 92 95 93 86 74 70 72 70 69 65 54 58 61 52 44 50 48 47 44 43 44 43 41 41 37 35 34 33 32 34 35 37 43 45 50 55 61 63 65 68 72 76
92 95 100 101 95 87 84 78 73 76 76 75 71 71 67 64 60 58 57 52 49 47 47 41 43 40 39 40 40 40 41 42 44 52 57 60 63 65 70 75 78 82 82
88 91 94 97 99 98 93 86 81 82 83 79 77 77 75 70 65 61 58 56 53 51 48 45 43 40 42 45 48 50 52 53 53 59 68 68 69 68 75 82 87 93 92
94 97 101 101 97 96 94 88 86 85 84 79 78 76 74 69 64 60 57 54 51 49 49 52 53 57 58 57 56 55 58 58 60 62 67 71 71 71 82 91 103 101 109
100 101 103 99 95 90 88 86 80 80 79 74 72 72 70 67 62 55 53 52 52 51 51 50 49 50 54 59 61 62 59 58 60 64 69 70 67 75 79 80 93 97 104
97 99 94 92 89 86 83 81 77 77 72 67 68 66 65 62 53 51 50 49 48 47 50 53 54 54 53 55 56 54 56 60 64 64 63 62 66 76 84 88 86 91 105
94 91 88 84 84 80 74 70 70 69 64 66 63 59 59 54 47 45 44 49 52 51 51 53 58 62 63 67 68 64 59 58 50 50 55 57 76 80 78 86 78 81 91
88 85 81 77 77 71 68 70 67 62 60 59 57 52 47 46 45 46 46 47 49 49 53 59 63 66 68 71 71 69 65 63 52 52 62 76 73 67 67 68 73 87 93
80 78 74 70 69 66 68 64 59 54 53 53 48 44 45 46 42 44 47 52 54 54 59 64 67 69 67 65 69 65 64 57 53 69 68 64 59 55 54 65 75 77 93
70 68 63 61 60 60 56 52 50 48 47 44 42 43 42 39 43 50 55 55 59 61 61 62 62 66 70 68 67 68 66 62 73 68 62 57 56 60 59 59 66 79 90
62 59 57 55 53 51 48 47 44 43 41 39 40 39 38 39 47 51 54 58 60 58 62 68 69 70 70 66 57 58 53 59 64 64 64 64 67 67 67 69 73 80 92
52 50 50 49 47 43 40 39 37 37 37 33 32 32 37 45 47 47 52 57 60 63 66 66 67 68 64 59 56 50 52 60 61 63 65 71 74 77 80 83 89 97 102
44 44 42 39 36 34 31 32 31 30 31 29 25 31 37 38 39 44 51 56 60 61 60 59 60 59 56 52 50 52 53 53 57 64 71 73 76 82 88 95 102 107 112
40 40 38 34 31 31 31 29 27 24 24 28 30 30 27 30 42 50 52 53 53 55 57 57 58 55 53 53 52 51 51 51 56 64 70 72 80 87 93 97 110 120 124
32 34 32 30 29 27 23 20 21 27 31 30 30 29 31 33 37 42 50 56 58 57 55 53 52 51 50 49 48 48 47 50 57 63 70 78 85 93 103 111 118 121 106
28 28 27 25 21 18 15 16 18 20 21 20 18 21 25 32 37 41 45 46 46 44 46 48 48 49 51 52 53 52 49 53 59 66 74 84 97 109 118 123 120 105 106
22 23 21 19 17 15 14 13 14 15 20 24 26 27 29 31 34 39 42 41 41 43 45 45 47 50 54 55 55 55 58 60 65 73 82 92 104 113 118 125 122 108 114
16 16 15 14 14 15 16 16 15 17 24 29 30 29 31 34 38 43 44 44 45 46 46 46 49 54 58 60 58 60 63 64 69 78 90 102 112 123 128 125 120 114 120
12 10 8 9 11 13 16 20 23 24 28 34 39 39 35 37 41 45 48 50 50 48 45 45 49 55 60 62 64 66 69 70 76 89 101 112 122 125 129 126 125 127 119
13 7 1 5 10 14 19 22 24 27 29 33 39 43 44 44 45 47 50 51 50 47 43 42 47 54 61 66 68 70 72 75 86 98 109 116 122 122 131 133 130 122 130
17 11 8 7 10 14 19 23 29 33 34 36 42 46 46 45 46 49 52 52 51 48 42 43 47 54 62 67 70 73 76 84 93 104 114 119 117 125 136 138 129 130 128
24 19 16 14 15 18 23 28 32 35 39 40 44 48 47 46 48 50 52 52 50 48 44 43 46 52 60 67 72 74 80 90 100 109 110 108 117 131 137 139 135 129 132
30 26 23 20 21 23 26 30 33 37 41 41 45 51 52 49 49 50 52 51 50 47 41 39 46 53 59 63 63 71 86 96 98 100 105 113 117 134 126 125 131 132 135
37 33 29 27 27 27 29 32 35 39 42 43 47 52 54 51 50 51 51 50 49 47 40 38 43 53 58 57 62 73 83 81 95 96 106 100 114 124 128 131 133 138 144
43 38 34 33 32 31 33 34 37 40 44 45 48 53 56 53 51 52 51 49 50 47 37 36 42 52 53 56 64 75 72 83 95 97 99 115 135 125 128 132 139 148 147
46 42 39 36 35 34 34 36 38 41 45 46 49 54 56 54 51 51 50 49 49 44 35 35 43 50 49 56 66 74 79 87 97 104 99 131 122 122 128 134 144 150 146
Wind_Direction_500mb
110 114 113 110 106 109 107 108 106 106 101 101 108 107 107 105 98 98 96 88 81 78 73 65 64 57 48 39 28 17 6 355 341 331 324 322 319 316 315 311 309 309 306
112 111 107 107 109 110 110 108 107 104 103 103 100 98 97 92 88 85 85 85 79 72 66 58 52 40 34 25 16 8 0 351 340 331 330 326 323 320 316 313 313 311 307
108 106 105 103 103 103 103 102 100 98 96 95 94 91 89 86 83 80 76 71 65 58 52 45 39 29 24 16 7 1 355 350 343 332 327 324 321 319 312 312 313 311 309
106 104 101 99 100 100 102 102 100 99 97 93 90 89 85 80 75 71 66 62 56 49 42 34 26 20 14 6 360 355 349 343 336 330 325 322 319 316 315 316 314 313 313
102 100 98 100 100 101 100 96 97 94 91 91 90 86 81 75 68 63 57 52 45 39 34 27 21 14 7 1 354 349 343 338 334 329 325 322 323 321 322 317 313 314 313
98 97 100 101 101 99 95 97 96 92 91 89 84 81 77 70 61 54 48 43 39 33 28 21 13 6 0 355 349 347 342 338 335 329 326 321 318 320 317 318 315 318 314
98 99 98 98 96 96 97 95 90 89 88 84 80 74 70 64 54 49 43 38 32 26 20 14 8 0 353 350 347 343 337 333 333 325 317 314 311 313 315 313 313 309 307
100 99 99 98 97 98 95 90 90 89 83 78 75 71 67 62 51 43 37 32 26 20 13 9 2 355 350 347 343 338 331 329 332 312 307 311 314 315 311 309 310 308 313
97 97 97 96 96 96 91 89 87 85 83 76 72 67 61 54 45 39 32 27 20 16 9 2 357 352 347 343 339 333 330 330 318 318 321 321 321 322 324 319 323 319 317
96 96 97 98 96 91 91 91 87 82 80 74 68 59 52 45 38 32 27 19 15 10 3 356 351 346 343 342 338 333 331 332 326 330 334 337 337 337 338 333 326 320 319
102 102 101 99 96 96 96 91 87 81 75 69 60 54 47 39 35 27 19 15 10 3 356 354 350 345 342 339 337 338 335 328 336 338 339 340 342 343 339 333 328 322 318
105 103 100 97 95 92 89 87 82 75 66 63 56 47 40 35 27 19 14 10 4 359 355 350 345 343 339 339 339 339 339 338 338 339 339 343 341 338 335 332 327 323 322
107 103 97 94 94 94 92 86 79 70 59 55 52 41 35 27 17 11 9 3 359 355 351 346 342 342 342 342 344 343 341 340 342 340 341 340 338 334 331 331 330 330 325
114 109 106 105 100 90 82 77 68 64 53 43 38 33 25 15 10 6 2 357 354 352 351 348 347 348 347 348 347 347 347 345 343 341 338 337 334 335 334 335 331 332 326
103 99 97 91 83 77 75 72 60 45 36 30 24 15 9 6 2 359 357 355 353 352 349 347 350 352 351 350 348 349 348 344 341 341 337 336 336 335 334 334 331 327 315
111 104 97 93 92 89 76 60 49 40 31 22 11 7 4 0 358 356 354 351 348 345 348 353 357 357 352 347 347 349 347 343 342 338 337 338 335 334 333 334 331 320 312
110 106 101 96 90 82 71 57 42 29 19 14 9 4 1 356 354 355 353 350 348 350 355 359 357 354 351 350 347 344 343 345 341 340 338 337 336 336 335 332 328 318 315
126 111 101 90 77 63 52 42 27 14 10 8 5 0 358 355 354 353 352 350 351 354 357 357 356 354 355 352 348 346 345 343 340 339 338 337 337 334 331 327 322 317 315
150 131 109 79 57 40 29 23 15 7 4 1 358 356 356 351 353 351 348 349 352 354 355 356 355 355 354 352 349 347 343 340 338 336 336 336 337 337 333 328 322 318 313
191 180 106 21 14 11 10 8 3 359 356 354 355 354 349 350 349 348 348 347 349 349 350 350 353 353 351 351 348 344 341 338 336 335 334 335 337 336 332 328 323 316 314
218 225 247 289 328 344 347 351 354 353 350 350 352 351 348 346 344 345 347 346 347 347 345 347 349 350 350 348 345 342 339 337 337 336 335 335 335 333 333 330 323 318 313
232 241 256 281 308 322 333 341 344 345 346 346 347 347 346 344 344 344 344 344 345 345 341 341 343 346 346 345 345 342 340 339 338 336 335 334 334 334 333 328 324 317 314
240 248 260 277 295 308 320 328 333 338 340 340 342 345 346 343 342 341 341 342 344 343 337 336 340 343 346 347 347 342 339 338 337 336 335 335 334 333 328 321 318 318 317
242 250 260 273 285 297 309 316 325 331 335 337 340 343 343 341 339 339 338 340 343 342 337 337 341 343 345 346 342 341 341 342 343 337 335 335 330 325 328 326 324 321 319
244 251 260 269 280 292 301 310 318 326 332 333 337 340 342 340 337 337 338 338 341 340 338 339 341 341 343 341 340 341 339 336 338 341 335 327 329 330 329 328 327 326 323
244 249 257 266 275 283 294 303 314 323 328 330 334 338 339 338 335 335 335 337 339 340 337 337 341 341 339 337 338 340 339 343 346 340 328 330 334 332 331 330 333 332 327
Wind_Speed_850mb
91 92 95 93 86 74 70 72 70 69 65 54 58 61 52 44 50 48 47 44 43 44 43 41 41 37 35 34 33 32 34 35 37 43 45 50 55 61 63 65 68 72 76
92 95 100 101 95 87 84 78 73 76 76 75 71 71 67 64 60 58 57 52 49 47 47 41 43 40 39 40 40 40 41 42 44 52 57 60 63 65 70 75 78 82 82
88 91 94 97 99 98 93 86 81 82 83 79 77 77 75 70 65 61 58 56 53 51 48 45 43 40 42 45 48 50 52 53 53 59 68 68 69 68 75 82 87 93 92
94 97 101 101 97 96 94 88 86 85 84 79 78 76 74 69 64 60 57 54 51 49 49 52 53 57 58 57 56 55 58 58 60 62 67 71 71 71 82 91 103 101 109
100 101 103 99 95 90 88 86 80 80 79 74 72 72 70 67 62 55 53 52 52 51 51 50 49 50 54 59 61 62 59 58 60 64 69 70 67 75 79 80 93 97 104
97 99 94 92 89 86 83 81 77 77 72 67 68 66 65 62 53 51 50 49 48 47 50 53 54 54 53 55 56 54 56 60 64 64 63 62 66 76 84 88 86 91 105
94 91 88 84 84 80 74 70 70 69 64 66 63 59 59 54 47 45 44 49 52 51 51 53 58 62 63 67 68 64 59 58 50 50 55 57 76 80 78 86 78 81 91
88 85 81 77 77 71 68 70 67 62 60 59 57 52 47 46 45 46 46 47 49 49 53 59 63 66 68 71 71 69 65 63 52 52 62 76 73 67 67 68 73 87 93
80 78 74 70 69 66 68 64 59 54 53 53 48 44 45 46 42 44 47 52 54 54 59 64 67 69 67 65 69 65 64 57 53 69 68 64 59 55 54 65 75 77 93
70 68 63 61 60 60 56 52 50 48 47 44 42 43 42 39 43 50 55 55 59 61 61 62 62 66 70 68 67 68 66 62 73 68 62 57 56 60 59 59 66 79 90
62 59 57 55 53 51 48 47 44 43 41 39 40 39 38 39 47 51 54 58 60 58 62 68 69 70 70 66 57 58 53 59 64 64 64 64 67 67 67 69 73 80 92
52 50 50 49 47 43 40 39 37 37 37 33 32 32 37 45 47 47 52 57 60 63 66 66 67 68 64 59 56 50 52 60 61 63 65 71 74 77 80 83 89 97 102
44 44 42 39 36 34 31 32 31 30 31 29 25 31 37 38 39 44 51 56 60 61 60 59 60 59 56 52 50 52 53 53 57 64 71 73 76 82 88 95 102 107 112
40 40 38 34 31 31 31 29 27 24 24 28 30 30 27 30 42 50 52 53 53 55 57 57 58 55 53 53 52 51 51 51 56 64 70 72 80 87 93 97 110 120 124
32 34 32 30 29 27 23 20 21 27 31 30 30 29 31 33 37 42 50 56 58 57 55 53 52 51 50 49 48 48 47 50 57 63 70 78 85 93 103 111 118 121 106
28 28 27 25 21 18 15 16 18 20 21 20 18 21 25 32 37 41 45 46 46 44 46 48 48 49 51 52 53 52 49 53 59 66 74 84 97 109 118 123 120 105 106
22 23 21 19 17 15 14 13 14 15 20 24 26 27 29 31 34 39 42 41 41 43 45 45 47 50 54 55 55 55 58 60 65 73 82 92 104 113 118 125 122 108 114
16 16 15 14 14 15 16 16 15 17 24 29 30 29 31 34 38 43 44 44 45 46 46 46 49 54 58 60 58 60 63 64 69 78 90 102 112 123 128 125 120 114 120
12 10 8 9 11 13 16 20 23 24 28 34 39 39 35 37 41 45 48 50 50 48 45 45 49 55 60 62 64 66 69 70 76 89 101 112 122 125 129 126 125 127 119
13 7 1 5 10 14 19 22 24 27 29 33 39 43 44 44 45 47 50 51 50 47 43 42 47 54 61 66 68 70 72 75 86 98 109 116 122 122 131 133 130 122 130
17 11 8 7 10 14 19 23 29 33 34 36 42 46 46 45 46 49 52 52 51 48 42 43 47 54 62 67 70 73 76 84 93 104 114 119 117 125 136 138 129 130 128
24 19 16 14 15 18 23 28 32 35 39 40 44 48 47 46 48 50 52 52 50 48 44 43 46 52 60 67 72 74 80 90 100 109 110 108 117 131 137 139 135 129 132
30 26 23 20 21 23 26 30 33 37 41 41 45 51 52 49 49 50 52 51 50 47 41 39 46 53 59 63 63 71 86 96 98 100 105 113 117 134 126 125 131 132 135
37 33 29 27 27 27 29 32 35 39 42 43 47 52 54 51 50 51 51 50 49 47 40 38 43 53 58 57 62 73 83 81 95 96 106 100 114 124 128 131 133 138 144
43 38 34 33 32 31 33 34 37 40 44 45 48 53 56 53 51 52 51 49 50 47 37 36 42 52 53 56 64 75 72 83 95 97 99 115 135 125 128 132 139 148 147
46 42 39 36 35 34 34 36 38 41 45 46 49 54 56 54 51 51 50 49 49 44 35 35 43 50 49 56 66 74 79 87 97 104 99 131 122 122 128 134 144 150 146
Wind_Direction_850mb
110 114 113 110 106 109 107 108 106 106 101 101 108 107 107 105 98 98 96 88 81 78 73 65 64 57 48 39 28 17 6 355 341 331 324 322 319 316 315 311 309 309 306
112 111 107 107 109 110 110 108 107 104 103 103 100 98 97 92 88 85 85 85 79 72 66 58 52 40 34 25 16 8 0 351 340 331 330 326 323 320 316 313 313 311 307
108 106 105 103 103 103 103 102 100 98 96 95 94 91 89 86 83 80 76 71 65 58 52 45 39 29 24 16 7 1 355 350 343 332 327 324 321 319 312 312 313 311 309
106 104 101 99 100 100 102 102 100 99 97 93 90 89 85 80 75 71 66 62 56 49 42 34 26 20 14 6 360 355 349 343 336 330 325 322 319 316 315 316 314 313 313
102 100 98 100 100 101 100 96 97 94 91 91 90 86 81 75 68 63 57 52 45 39 34 27 21 14 7 1 354 349 343 338 334 329 325 322 323 321 322 317 313 314 313
98 97 100 101 101 99 95 97 96 92 91 89 84 81 77 70 61 54 48 43 39 33 28 21 13 6 0 355 349 347 342 338 335 329 326 321 318 320 317 318 315 318 314
98 99 98 98 96 96 97 95 90 89 88 84 80 74 70 64 54 49 43 38 32 26 20 14 8 0 353 350 347 343 337 333 333 325 317 314 311 313 315 313 313 309 307
100 99 99 98 97 98 95 90 90 89 83 78 75 71 67 62 51 43 37 32 26 20 13 9 2 355 350 347 343 338 331 329 332 312 307 311 314 315 311 309 310 308 313
97 97 97 96 96 96 91 89 87 85 83 76 72 67 61 54 45 39 32 27 20 16 9 2 357 352 347 343 339 333 330 330 318 318 321 321 321 322 324 319 323 319 317
96 96 97 98 96 91 91 91 87 82 80 74 68 59 52 45 38 32 27 19 15 10 3 356 351 346 343 342 338 333 331 332 326 330 334 337 337 337 338 333 326 320 319
102 102 101 99 96 96 96 91 87 81 75 69 60 54 47 39 35 27 19 15 10 3 356 354 350 345 342 339 337 338 335 328 336 338 339 340 342 343 339 333 328 322 318
105 103 100 97 95 92 89 87 82 75 66 63 56 47 40 35 27 19 14 10 4 359 355 350 345 343 339 339 339 339 339 338 338 339 339 343 341 338 335 332 327 323 322
107 103 97 94 94 94 92 86 79 70 59 55 52 41 35 27 17 11 9 3 359 355 351 346 342 342 342 342 344 343 341 340 342 340 341 340 338 334 331 331 330 330 325
114 109 106 105 100 90 82 77 68 64 53 43 38 33 25 15 10 6 2 357 354 352 351 348 347 348 347 348 347 347 347 345 343 341 338 337 334 335 334 335 331 332 326
103 99 97 91 83 77 75 72 60 45 36 30 24 15 9 6 2 359 357 355 353 352 349 347 350 352 351 350 348 349 348 344 341 341 337 336 336 335 334 334 331 327 315
111 104 97 93 92 89 76 60 49 40 31 22 11 7 4 0 358 356 354 351 348 345 348 353 357 357 352 347 347 349 347 343 342 338 337 338 335 334 333 334 331 320 312
110 106 101 96 90 82 71 57 42 29 19 14 9 4 1 356 354 355 353 350 348 350 355 359 357 354 351 350 347 344 343 345 341 340 338 337 336 336 335 332 328 318 315
126 111 101 90 77 63 52 42 27 14 10 8 5 0 358 355 354 353 352 350 351 354 357 357 356 354 355 352 348 346 345 343 340 339 338 337 337 334 331 327 322 317 315
150 131 109 79 57 40 29 23 15 7 4 1 358 356 356 351 353 351 348 349 352 354 355 356 355 355 354 352 349 347 343 340 338 336 336 336 337 337 333 328 322 318 313
191 180 106 21 14 11 10 8 3 359 356 354 355 354 349 350 349 348 348 347 349 349 350 350 353 353 351 351 348 344 341 338 336 335 334 335 337 336 332 328 323 316 314
218 225 247 289 328 344 347 351 354 353 350 350 352 351 348 346 344 345 347 346 347 347 345 347 349 350 350 348 345 342 339 337 337 336 335 335 335 333 333 330 323 318 313
232 241 256 281 308 322 333 341 344 345 346 346 347 347 346 344 344 344 344 344 345 345 341 341 343 346 346 345 345 342 340 339 338 336 335 334 334 334 333 328 324 317 314
240 248 260 277 295 308 320 328 333 338 340 340 342 345 346 343 342 341 341 342 344 343 337 336 340 343 346 347 347 342 339 338 337 336 335 335 334 333 328 321 318 318 317
242 250 260 273 285 297 309 316 325 331 335 337 340 343 343 341 339 339 338 340 343 342 337 337 341 343 345 346 342 341 341 342 343 337 335 335 330 325 328 326 324 321 319
244 251 260 269 280 292 301 310 318 326 332 333 337 340 342 340 337 337 338 338 341 340 338 339 341 341 343 341 340 341 339 336 338 341 335 327 329 330 329 328 327 326 323
244 249 257 266 275 283 294 303 314 323 328 330 334 338 339 338 335 335 335 337 339 340 337 337 341 341 339 337 338 340 339 343 346 340 328 330 334 332 331 330 333 332 327